Location: Cahas Mountain Overlook
(37.0833°N, 80.1000°W)
Time: 19:07:13
(UTC-04:00)

Tiros 1 - Pass Details

Date: 15 February 2026
Orbit: 618 x 649 km, 48.4° (Epoch: 13 March)

Event Time Altitude Azimuth Distance (km) Brightness Sun altitude
Rises 10:28:22 0° 257° (WSW) 2,899 10.3 32.2°
Reaches altitude 10° 10:30:48 10° 265° (W) 1,989 9.5 32.5°
Maximum altitude 10:35:06 39° 334° (NNW) 928 7.8 33.0°
Drops below altitude 10° 10:39:23 10° 45° (NE) 1,982 9.6 33.5°
Sets 10:41:49 0° 53° (NE) 2,887 10.5 33.8°
